| time (UTC) | temp C | wind direction | speed KPH | gust KPH | rain 1hr cm | rain 24hr cm | rain mn cm | humidity % | barometer mb |
| 20260506045040 | 6 | 346 | 20.9 | 32.2 | 0.08 | 0.08 | 0.08 | 73 | 1016.0 |
| 20260506044619 | 6 | 324 | 19.3 | 27.4 | 0.08 | 0.08 | 0.08 | 74 | 1015.8 |
| 20260506044038 | 6 | 333 | 11.3 | 19.3 | 0.08 | 0.08 | 0.08 | 74 | 1015.9 |
| 20260506043538 | 6 | 317 | 11.3 | 20.9 | 0.08 | 0.08 | 0.08 | 74 | 1015.9 |
| 20260506043046 | 6 | 323 | 14.5 | 35.4 | 0.08 | 0.08 | 0.08 | 76 | 1015.8 |
| 20260506042539 | 6 | 334 | 20.9 | 35.4 | 0.08 | 0.08 | 0.08 | 76 | 1015.7 |
| 20260506042039 | 6 | 339 | 22.5 | 30.6 | 0.08 | 0.08 | 0.08 | 76 | 1015.8 |
| 20260506041549 | 6 | 331 | 20.9 | 32.2 | 0.08 | 0.08 | 0.08 | 77 | 1015.7 |
| 20260506041039 | 6 | 350 | 22.5 | 32.2 | 0.05 | 0.05 | 0.05 | 76 | 1015.4 |
| 20260506040539 | 6 | 326 | 24.1 | 32.2 | 0.03 | 0.03 | 0.03 | 77 | 1015.6 |
| 20260506040046 | 6 | 334 | 24.1 | 38.6 | 0.03 | 0.03 | 0.03 | 75 | 1015.5 |
| 20260506035536 | 7 | 339 | 27.4 | 40.2 | 0.00 | 0.00 | 0.00 | 73 | 1015.5 |
| 20260506035036 | 7 | 342 | 30.6 | 40.2 | 0.00 | 0.00 | 0.00 | 69 | 1015.2 |
| 20260506034543 | 7 | 5 | 24.1 | 40.2 | 0.00 | 0.00 | 0.00 | 69 | 1014.9 |
| 20260506034036 | 7 | 342 | 30.6 | 40.2 | 0.00 | 0.00 | 0.00 | 68 | 1014.9 |
| 20260506033537 | 7 | 350 | 29.0 | 45.1 | 0.00 | 0.00 | 0.00 | 68 | 1014.7 |
| 20260506033047 | 7 | 317 | 32.2 | 45.1 | 0.00 | 0.00 | 0.00 | 68 | 1014.2 |
| 20260506032540 | 7 | 346 | 29.0 | 46.7 | 0.00 | 0.00 | 0.00 | 68 | 1014.7 |
| 20260506032042 | 7 | 5 | 33.8 | 46.7 | 0.00 | 0.00 | 0.00 | 68 | 1014.5 |
| 20260506031543 | 7 | 339 | 32.2 | 40.2 | 0.00 | 0.00 | 0.00 | 68 | 1014.5 |
| 20260506031041 | 8 | 360 | 30.6 | 46.7 | 0.00 | 0.00 | 0.00 | 67 | 1014.4 |
| 20260506030540 | 8 | 335 | 30.6 | 46.7 | 0.00 | 0.00 | 0.00 | 65 | 1014.3 |
| 20260506030042 | 8 | 360 | 32.2 | 40.2 | 0.00 | 0.00 | 0.00 | 64 | 1014.2 |
| 20260506025539 | 8 | 348 | 25.7 | 38.6 | 0.00 | 0.00 | 0.00 | 62 | 1014.2 |
| 20260506025036 | 9 | 342 | 27.4 | 38.6 | 0.00 | 0.00 | 0.00 | 61 | 1014.3 |
| 20260506024547 | 9 | 350 | 27.4 | 38.6 | 0.00 | 0.00 | 0.00 | 61 | 1014.1 |
| 20260506024036 | 9 | 323 | 20.9 | 35.4 | 0.00 | 0.00 | 0.00 | 62 | 1014.3 |
| 20260506023538 | 9 | 331 | 19.3 | 29.0 | 0.00 | 0.00 | 0.00 | 62 | 1014.0 |
| 20260506023057 | 8 | 279 | 9.7 | 14.5 | 0.00 | 0.00 | 0.00 | 62 | 1013.7 |
| 20260506022536 | 8 | 265 | 9.7 | 12.9 | 0.00 | 0.00 | 0.00 | 61 | 1013.6 |
| 20260506022037 | 8 | 272 | 6.4 | 11.3 | 0.00 | 0.00 | 0.00 | 60 | 1013.6 |
| 20260506021555 | 9 | 280 | 6.4 | 11.3 | 0.00 | 0.00 | 0.00 | 60 | 1013.6 |
| 20260506021038 | 9 | 277 | 6.4 | 9.7 | 0.00 | 0.00 | 0.00 | 59 | 1013.6 |
| 20260506020539 | 9 | 290 | 6.4 | 11.3 | 0.00 | 0.00 | 0.00 | 59 | 1013.6 |
| 20260506020043 | 10 | 307 | 6.4 | 12.9 | 0.00 | 0.00 | 0.00 | 59 | 1013.6 |
| 20260506015537 | 10 | 294 | 8.0 | 16.1 | 0.00 | 0.00 | 0.00 | 58 | 1013.6 |
| 20260506015039 | 10 | 284 | 9.7 | 17.7 | 0.00 | 0.00 | 0.00 | 57 | 1013.6 |
| 20260506014545 | 10 | 286 | 11.3 | 20.9 | 0.00 | 0.00 | 0.00 | 56 | 1013.4 |
| 20260506014040 | 10 | 288 | 12.9 | 24.1 | 0.00 | 0.00 | 0.00 | 56 | 1013.3 |
| 20260506013536 | 10 | 306 | 16.1 | 25.7 | 0.00 | 0.00 | 0.00 | 55 | 1013.4 |
| 20260506013040 | 10 | 292 | 16.1 | 30.6 | 0.00 | 0.00 | 0.00 | 54 | 1013.3 |
| 20260506012538 | 11 | 288 | 19.3 | 30.6 | 0.00 | 0.00 | 0.00 | 53 | 1013.2 |
| 20260506012039 | 11 | 300 | 24.1 | 35.4 | 0.00 | 0.00 | 0.00 | 51 | 1013.0 |
| 20260506011537 | 11 | 290 | 20.9 | 35.4 | 0.00 | 0.00 | 0.00 | 51 | 1013.2 |
| 20260506011040 | 11 | 306 | 24.1 | 33.8 | 0.00 | 0.00 | 0.00 | 48 | 1013.4 |
| 20260506010538 | 11 | 300 | 19.3 | 32.2 | 0.00 | 0.00 | 0.00 | 48 | 1013.0 |
| 20260506010055 | 11 | 281 | 16.1 | 22.5 | 0.00 | 0.00 | 0.00 | 51 | 1012.8 |
| 20260506005537 | 12 | 273 | 16.1 | 22.5 | 0.00 | 0.00 | 0.00 | 51 | 1012.8 |
| 20260506005041 | 12 | 276 | 16.1 | 22.5 | 0.00 | 0.00 | 0.00 | 50 | 1012.6 |
| 20260506004552 | 12 | 278 | 12.9 | 25.7 | 0.00 | 0.00 | 0.00 | 50 | 1012.8 |
| 20260506004038 | 12 | 276 | 17.7 | 30.6 | 0.00 | 0.00 | 0.00 | 49 | 1012.9 |
| 20260506003538 | 12 | 277 | 19.3 | 30.6 | 0.00 | 0.00 | 0.00 | 47 | 1012.9 |
| 20260506003050 | 12 | 258 | 19.3 | 32.2 | 0.00 | 0.00 | 0.00 | 47 | 1012.9 |
| 20260506002538 | 13 | 282 | 19.3 | 32.2 | 0.00 | 0.00 | 0.00 | 46 | 1012.5 |
| 20260506002038 | 13 | 276 | 22.5 | 37.0 | 0.00 | 0.00 | 0.00 | 45 | 1012.7 |
| 20260506001553 | 13 | 281 | 22.5 | 37.0 | 0.00 | 0.00 | 0.00 | 44 | 1012.8 |
| 20260506001038 | 14 | 277 | 20.9 | 33.8 | 0.00 | 0.00 | 0.00 | 42 | 1012.8 |
| 20260506000539 | 14 | 269 | 24.1 | 33.8 | 0.00 | 0.00 | 0.00 | 41 | 1012.8 |
| 20260506000052 | 14 | 281 | 19.3 | 33.8 | 0.00 | 0.00 | 0.00 | 43 | 1012.7 |
| 20260505235541 | 14 | 262 | 24.1 | 35.4 | 0.00 | 0.00 | 0.00 | 43 | 1012.8 |
| 20260505235038 | 14 | 267 | 24.1 | 35.4 | 0.00 | 0.00 | 0.00 | 42 | 1012.7 |
| 20260505234602 | 14 | 253 | 25.7 | 35.4 | 0.00 | 0.00 | 0.00 | 41 | 1012.8 |
| 20260505234042 | 14 | 235 | 24.1 | 32.2 | 0.00 | 0.00 | 0.00 | 41 | 1012.7 |
| 20260505233541 | 14 | 245 | 16.1 | 29.0 | 0.00 | 0.00 | 0.00 | 43 | 1012.8 |
| 20260505233047 | 13 | 257 | 16.1 | 25.7 | 0.00 | 0.00 | 0.00 | 47 | 1012.9 |
| 20260505232538 | 14 | 257 | 20.9 | 24.1 | 0.00 | 0.00 | 0.00 | 46 | 1012.9 |
| 20260505232040 | 14 | 283 | 17.7 | 27.4 | 0.00 | 0.00 | 0.00 | 44 | 1013.0 |
| 20260505231549 | 13 | 292 | 20.9 | 27.4 | 0.00 | 0.00 | 0.00 | 44 | 1013.0 |
| 20260505231038 | 13 | 263 | 16.1 | 27.4 | 0.00 | 0.00 | 0.00 | 50 | 1012.9 |
| 20260505230538 | 13 | 247 | 17.7 | 27.4 | 0.00 | 0.00 | 0.00 | 49 | 1012.8 |
| 20260505230047 | 13 | 246 | 17.7 | 24.1 | 0.00 | 0.00 | 0.00 | 49 | 1012.8 |
| 20260505225538 | 13 | 265 | 16.1 | 24.1 | 0.00 | 0.00 | 0.00 | 51 | 1012.7 |
| 20260505225039 | 13 | 268 | 16.1 | 27.4 | 0.00 | 0.00 | 0.00 | 51 | 1012.9 |
| 20260505224548 | 13 | 275 | 19.3 | 32.2 | 0.00 | 0.00 | 0.00 | 51 | 1012.8 |
| 20260505224040 | 12 | 271 | 22.5 | 38.6 | 0.00 | 0.00 | 0.00 | 52 | 1013.0 |
| 20260505223537 | 12 | 278 | 27.4 | 51.5 | 0.00 | 0.00 | 0.00 | 52 | 1013.3 |
| 20260505223044 | 13 | 277 | 33.8 | 51.5 | 0.00 | 0.00 | 0.00 | 49 | 1013.4 |
| 20260505222545 | 13 | 268 | 33.8 | 46.7 | 0.00 | 0.00 | 0.00 | 48 | 1013.4 |
| 20260505222038 | 13 | 265 | 25.7 | 40.2 | 0.00 | 0.00 | 0.00 | 49 | 1013.4 |
| 20260505221547 | 13 | 292 | 29.0 | 40.2 | 0.00 | 0.00 | 0.00 | 47 | 1013.3 |
| 20260505221038 | 13 | 276 | 27.4 | 40.2 | 0.00 | 0.00 | 0.00 | 46 | 1013.5 |
| 20260505220542 | 13 | 276 | 24.1 | 35.4 | 0.00 | 0.00 | 0.00 | 48 | 1013.4 |
| 20260505220051 | 13 | 248 | 20.9 | 33.8 | 0.00 | 0.00 | 0.00 | 51 | 1013.4 |
| 20260505215538 | 13 | 304 | 12.9 | 32.2 | 0.00 | 0.00 | 0.00 | 51 | 1013.3 |
| 20260505215042 | 13 | 282 | 12.9 | 20.9 | 0.00 | 0.00 | 0.00 | 52 | 1013.4 |
| 20260505214604 | 13 | 305 | 11.3 | 19.3 | 0.00 | 0.00 | 0.00 | 52 | 1013.3 |
| 20260505214038 | 12 | 288 | 4.8 | 17.7 | 0.00 | 0.00 | 0.00 | 53 | 1013.4 |
| 20260505213541 | 12 | 321 | 8.0 | 20.9 | 0.00 | 0.00 | 0.00 | 54 | 1013.4 |
| 20260505213056 | 13 | 279 | 12.9 | 20.9 | 0.00 | 0.00 | 0.00 | 53 | 1013.6 |
| 20260505212542 | 13 | 291 | 8.0 | 25.7 | 0.00 | 0.00 | 0.00 | 54 | 1013.6 |
| 20260505212042 | 13 | 280 | 14.5 | 30.6 | 0.00 | 0.00 | 0.00 | 54 | 1013.6 |
| 20260505211549 | 13 | 300 | 17.7 | 32.2 | 0.00 | 0.00 | 0.00 | 53 | 1013.7 |
| 20260505211038 | 13 | 247 | 19.3 | 32.2 | 0.00 | 0.00 | 0.00 | 53 | 1013.8 |
| 20260505210540 | 12 | 217 | 14.5 | 20.9 | 0.00 | 0.00 | 0.00 | 56 | 1013.7 |
| 20260505210057 | 12 | 238 | 11.3 | 22.5 | 0.00 | 0.00 | 0.00 | 55 | 1013.7 |
| 20260505205542 | 13 | 276 | 14.5 | 22.5 | 0.00 | 0.00 | 0.00 | 55 | 1013.8 |
| 20260505205040 | 12 | 302 | 11.3 | 22.5 | 0.00 | 0.00 | 0.00 | 56 | 1013.9 |
| 20260505204558 | 12 | 284 | 12.9 | 22.5 | 0.00 | 0.00 | 0.00 | 56 | 1014.1 |
| 20260505204038 | 12 | 292 | 16.1 | 22.5 | 0.00 | 0.00 | 0.00 | 55 | 1014.2 |
| 20260505203538 | 13 | 268 | 14.5 | 22.5 | 0.00 | 0.00 | 0.00 | 54 | 1014.2 |
| 20260505203052 | 13 | 252 | 16.1 | 27.4 | 0.00 | 0.00 | 0.00 | 55 | 1014.3 |
| 20260505202537 | 12 | 262 | 14.5 | 27.4 | 0.00 | 0.00 | 0.00 | 55 | 1014.3 |
| 20260505202038 | 13 | 290 | 17.7 | 25.7 | 0.00 | 0.00 | 0.00 | 54 | 1014.2 |
| 20260505201554 | 13 | 290 | 19.3 | 32.2 | 0.00 | 0.00 | 0.00 | 53 | 1014.1 |
| 20260505201042 | 13 | 294 | 20.9 | 32.2 | 0.00 | 0.00 | 0.00 | 54 | 1014.1 |
| 20260505200538 | 13 | 295 | 19.3 | 33.8 | 0.00 | 0.00 | 0.00 | 54 | 1014.1 |
| 20260505200058 | 13 | 250 | 20.9 | 33.8 | 0.00 | 0.00 | 0.00 | 53 | 1014.1 |
| 20260505195538 | 13 | 271 | 20.9 | 33.8 | 0.00 | 0.00 | 0.00 | 54 | 1014.1 |
| 20260505195037 | 13 | 246 | 20.9 | 30.6 | 0.00 | 0.00 | 0.00 | 58 | 1014.1 |
| 20260505194554 | 12 | 287 | 17.7 | 30.6 | 0.00 | 0.00 | 0.00 | 59 | 1014.1 |
| 20260505194042 | 13 | 292 | 16.1 | 30.6 | 0.00 | 0.00 | 0.00 | 60 | 1014.3 |
| 20260505193539 | 13 | 302 | 16.1 | 25.7 | 0.00 | 0.00 | 0.00 | 66 | 1014.3 |
| 20260505193053 | 11 | 301 | 19.3 | 27.4 | 0.00 | 0.00 | 0.00 | 70 | 1014.3 |
| 20260505192538 | 11 | 275 | 22.5 | 35.4 | 0.00 | 0.00 | 0.00 | 72 | 1014.3 |
| 20260505192038 | 10 | 257 | 22.5 | 37.0 | 0.00 | 0.00 | 0.00 | 75 | 1014.3 |
| 20260505191556 | 11 | 261 | 29.0 | 43.5 | 0.00 | 0.00 | 0.00 | 72 | 1014.4 |
| 20260505191038 | 11 | 263 | 27.4 | 43.5 | 0.00 | 0.00 | 0.00 | 63 | 1014.2 |
| 20260505190538 | 12 | 270 | 20.9 | 33.8 | 0.00 | 0.00 | 0.00 | 55 | 1014.2 |
| 20260505190049 | 13 | 280 | 24.1 | 35.4 | 0.00 | 0.00 | 0.00 | 53 | 1014.1 |
| 20260505185539 | 13 | 250 | 25.7 | 35.4 | 0.00 | 0.00 | 0.00 | 49 | 1014.1 |
| 20260505185038 | 13 | 276 | 17.7 | 27.4 | 0.00 | 0.00 | 0.00 | 49 | 1014.1 |
| 20260505184551 | 14 | 238 | 17.7 | 27.4 | 0.00 | 0.00 | 0.00 | 48 | 1014.0 |
| 20260505184042 | 14 | 228 | 20.9 | 27.4 | 0.00 | 0.00 | 0.00 | 47 | 1014.1 |
| 20260505183538 | 14 | 213 | 16.1 | 20.9 | 0.00 | 0.00 | 0.00 | 49 | 1014.0 |
| 20260505183055 | 13 | 269 | 14.5 | 22.5 | 0.00 | 0.00 | 0.00 | 51 | 1014.2 |
| 20260505182537 | 13 | 192 | 12.9 | 22.5 | 0.00 | 0.00 | 0.00 | 52 | 1014.3 |
| 20260505182040 | 13 | 225 | 14.5 | 22.5 | 0.00 | 0.00 | 0.00 | 51 | 1014.3 |
| 20260505181549 | 12 | 201 | 3.2 | 12.9 | 0.00 | 0.00 | 0.00 | 52 | 1014.5 |
| 20260505181045 | 12 | 193 | 3.2 | 12.9 | 0.00 | 0.00 | 0.00 | 52 | 1014.5 |
| 20260505180541 | 11 | 207 | 4.8 | 16.1 | 0.00 | 0.00 | 0.00 | 51 | 1014.6 |
| 20260505180105 | 12 | 0 | 3.2 | 16.1 | 0.00 | 0.00 | 0.00 | 52 | 1014.5 |
| 20260505175538 | 12 | 256 | 6.4 | 11.3 | 0.00 | 0.00 | 0.00 | 51 | 1014.5 |
| 20260505175038 | 12 | 311 | 6.4 | 12.9 | 0.00 | 0.00 | 0.00 | 50 | 1014.7 |
| 20260505174601 | 12 | 0 | 3.2 | 12.9 | 0.00 | 0.00 | 0.00 | 51 | 1014.9 |
| 20260505174038 | 12 | 250 | 6.4 | 19.3 | 0.00 | 0.00 | 0.00 | 50 | 1015.1 |
| 20260505173538 | 12 | 240 | 6.4 | 19.3 | 0.00 | 0.00 | 0.00 | 48 | 1015.1 |
| 20260505173049 | 13 | 268 | 6.4 | 22.5 | 0.00 | 0.00 | 0.00 | 49 | 1015.0 |
| 20260505172537 | 12 | 223 | 14.5 | 22.5 | 0.00 | 0.00 | 0.00 | 49 | 1015.1 |
| 20260505172038 | 12 | 242 | 6.4 | 14.5 | 0.00 | 0.00 | 0.00 | 50 | 1015.3 |
| 20260505171547 | 12 | 221 | 6.4 | 19.3 | 0.00 | 0.00 | 0.00 | 51 | 1015.1 |
| 20260505171041 | 12 | 216 | 11.3 | 19.3 | 0.00 | 0.00 | 0.00 | 50 | 1014.9 |
| 20260505170538 | 12 | 192 | 6.4 | 12.9 | 0.00 | 0.00 | 0.00 | 51 | 1014.9 |
| 20260505170053 | 11 | 72 | 3.2 | 16.1 | 0.00 | 0.00 | 0.00 | 52 | 1015.0 |
| 20260505165538 | 12 | 207 | 6.4 | 16.1 | 0.00 | 0.00 | 0.00 | 50 | 1014.9 |
| 20260505165041 | 11 | 299 | 3.2 | 12.9 | 0.00 | 0.00 | 0.00 | 52 | 1014.8 |
| 20260505164550 | 11 | 315 | 4.8 | 14.5 | 0.00 | 0.00 | 0.00 | 51 | 1014.9 |
| 20260505164038 | 11 | 335 | 6.4 | 14.5 | 0.00 | 0.00 | 0.00 | 51 | 1015.1 |
| 20260505163538 | 11 | 345 | 3.2 | 12.9 | 0.00 | 0.00 | 0.00 | 53 | 1015.3 |
| 20260505163053 | 11 | 309 | 6.4 | 22.5 | 0.00 | 0.00 | 0.00 | 52 | 1015.3 |
| 20260505162538 | 11 | 307 | 9.7 | 22.5 | 0.00 | 0.00 | 0.00 | 52 | 1015.4 |
| 20260505162038 | 11 | 319 | 6.4 | 17.7 | 0.00 | 0.00 | 0.00 | 51 | 1015.4 |
| 20260505161558 | 11 | 333 | 9.7 | 20.9 | 0.00 | 0.00 | 0.00 | 51 | 1015.4 |
| 20260505161038 | 11 | 351 | 16.1 | 24.1 | 0.00 | 0.00 | 0.00 | 52 | 1015.3 |
| 20260505160538 | 11 | 343 | 16.1 | 24.1 | 0.00 | 0.00 | 0.00 | 52 | 1015.4 |
| 20260505153049 | 11 | 327 | 19.3 | 25.7 | 0.00 | 0.00 | 0.00 | 52 | 1015.2 |
| 20260505152538 | 11 | 326 | 19.3 | 25.7 | 0.00 | 0.00 | 0.00 | 52 | 1015.4 |
| 20260505152038 | 10 | 324 | 16.1 | 25.7 | 0.00 | 0.00 | 0.00 | 53 | 1015.6 |
| 20260505151548 | 10 | 326 | 14.5 | 22.5 | 0.00 | 0.00 | 0.00 | 53 | 1015.6 |
| 20260505151039 | 10 | 333 | 16.1 | 22.5 | 0.00 | 0.00 | 0.00 | 53 | 1015.6 |
| 20260505150538 | 10 | 333 | 16.1 | 22.5 | 0.00 | 0.00 | 0.00 | 53 | 1015.6 |
| 20260505140538 | 11 | 346 | 22.5 | 29.0 | 0.00 | 0.00 | 0.00 | 47 | 1015.5 |
| 20260505125040 | 10 | 282 | 16.1 | 19.3 | 0.00 | 0.00 | 0.00 | 44 | 1014.9 |
| 20260505124550 | 10 | 288 | 12.9 | 19.3 | 0.00 | 0.00 | 0.00 | 44 | 1014.9 |
| 20260505124040 | 10 | 286 | 12.9 | 17.7 | 0.00 | 0.00 | 0.00 | 43 | 1015.0 |
| 20260505123537 | 10 | 298 | 14.5 | 17.7 | 0.00 | 0.00 | 0.00 | 43 | 1015.1 |
| 20260505123100 | 10 | 275 | 11.3 | 16.1 | 0.00 | 0.00 | 0.00 | 43 | 1015.1 |
| 20260505122539 | 10 | 273 | 11.3 | 22.5 | 0.00 | 0.00 | 0.00 | 42 | 1015.2 |
| 20260505122040 | 10 | 279 | 12.9 | 22.5 | 0.00 | 0.00 | 0.00 | 41 | 1015.1 |
| 20260505121548 | 10 | 267 | 16.1 | 22.5 | 0.00 | 0.00 | 0.00 | 41 | 1014.7 |
| 20260505121039 | 11 | 255 | 16.1 | 22.5 | 0.00 | 0.00 | 0.00 | 40 | 1014.9 |
| 20260505120538 | 11 | 252 | 19.3 | 22.5 | 0.00 | 0.00 | 0.00 | 39 | 1014.7 |
| 20260505120050 | 11 | 260 | 17.7 | 22.5 | 0.00 | 0.00 | 0.00 | 39 | 1014.5 |
| 20260505115538 | 11 | 258 | 16.1 | 19.3 | 0.00 | 0.00 | 0.00 | 39 | 1014.6 |
| 20260505115039 | 11 | 253 | 16.1 | 20.9 | 0.00 | 0.00 | 0.00 | 39 | 1014.5 |
| 20260505114550 | 11 | 264 | 16.1 | 22.5 | 0.00 | 0.00 | 0.00 | 39 | 1014.5 |
| 20260505114039 | 11 | 259 | 14.5 | 22.5 | 0.00 | 0.00 | 0.00 | 39 | 1014.4 |
| 20260505113542 | 11 | 252 | 14.5 | 19.3 | 0.00 | 0.00 | 0.00 | 38 | 1014.6 |
| 20260505113106 | 11 | 258 | 12.9 | 19.3 | 0.00 | 0.00 | 0.00 | 39 | 1014.6 |
| 20260505112539 | 11 | 283 | 11.3 | 19.3 | 0.00 | 0.00 | 0.00 | 39 | 1014.5 |
| 20260505112038 | 11 | 273 | 11.3 | 19.3 | 0.00 | 0.00 | 0.00 | 39 | 1014.6 |
| 20260505111545 | 11 | 277 | 11.3 | 14.5 | 0.00 | 0.00 | 0.00 | 38 | 1014.8 |
| 20260505111039 | 11 | 261 | 9.7 | 19.3 | 0.00 | 0.00 | 0.00 | 37 | 1014.9 |
| 20260505110538 | 11 | 277 | 9.7 | 20.9 | 0.00 | 0.00 | 0.00 | 37 | 1014.9 |
| 20260505102038 | 11 | 337 | 4.8 | 8.0 | 0.00 | 0.00 | 0.00 | 36 | 1014.7 |
| 20260505101545 | 11 | 349 | 4.8 | 16.1 | 0.00 | 0.00 | 0.00 | 35 | 1014.7 |
| 20260505101038 | 12 | 10 | 8.0 | 16.1 | 0.00 | 0.00 | 0.00 | 35 | 1014.7 |
| 20260505100538 | 12 | 19 | 8.0 | 22.5 | 0.00 | 0.00 | 0.00 | 34 | 1014.7 |
| 20260505100052 | 12 | 5 | 9.7 | 22.5 | 0.00 | 0.00 | 0.00 | 33 | 1014.7 |
| 20260505095538 | 12 | 9 | 14.5 | 16.1 | 0.00 | 0.00 | 0.00 | 32 | 1014.6 |
| 20260505095037 | 12 | 13 | 11.3 | 17.7 | 0.00 | 0.00 | 0.00 | 29 | 1014.6 |
| 20260505094546 | 12 | 19 | 9.7 | 17.7 | 0.00 | 0.00 | 0.00 | 32 | 1014.5 |
| 20260505094038 | 12 | 29 | 9.7 | 16.1 | 0.00 | 0.00 | 0.00 | 33 | 1014.5 |
| 20260505093539 | 12 | 44 | 3.2 | 8.0 | 0.00 | 0.00 | 0.00 | 37 | 1014.7 |
| 20260505093046 | 12 | 61 | 1.6 | 6.4 | 0.00 | 0.00 | 0.00 | 37 | 1014.7 |
| 20260505092539 | 12 | 0 | 0.0 | 8.0 | 0.00 | 0.00 | 0.00 | 37 | 1014.8 |
| 20260505092038 | 12 | 0 | 3.2 | 8.0 | 0.00 | 0.00 | 0.00 | 36 | 1015.0 |
| 20260505091607 | 12 | 53 | 4.8 | 14.5 | 0.00 | 0.00 | 0.00 | 36 | 1015.0 |
| 20260505091038 | 12 | 5 | 3.2 | 14.5 | 0.00 | 0.00 | 0.00 | 36 | 1015.0 |
| 20260505090538 | 12 | 334 | 8.0 | 12.9 | 0.00 | 0.00 | 0.00 | 37 | 1014.9 |
| 20260505090049 | 12 | 13 | 4.8 | 12.9 | 0.00 | 0.00 | 0.00 | 37 | 1014.9 |
| 20260505085541 | 12 | 21 | 6.4 | 16.1 | 0.00 | 0.00 | 0.00 | 36 | 1014.8 |
| 20260505085038 | 12 | 32 | 11.3 | 16.1 | 0.00 | 0.00 | 0.00 | 36 | 1014.9 |
| 20260505084549 | 12 | 38 | 9.7 | 12.9 | 0.00 | 0.00 | 0.00 | 36 | 1014.9 |
| 20260505084037 | 12 | 29 | 8.0 | 14.5 | 0.00 | 0.00 | 0.00 | 35 | 1015.0 |
| 20260505083537 | 12 | 9 | 8.0 | 14.5 | 0.00 | 0.00 | 0.00 | 35 | 1015.0 |
| 20260505083051 | 13 | 19 | 6.4 | 19.3 | 0.00 | 0.00 | 0.00 | 34 | 1014.7 |
| 20260505082537 | 13 | 20 | 14.5 | 24.1 | 0.00 | 0.00 | 0.00 | 34 | 1014.9 |
| 20260505082039 | 13 | 5 | 17.7 | 24.1 | 0.00 | 0.00 | 0.00 | 34 | 1015.0 |
| 20260505081600 | 13 | 9 | 6.4 | 14.5 | 0.00 | 0.00 | 0.00 | 33 | 1014.9 |
| 20260505081038 | 13 | 349 | 0.0 | 3.2 | 0.00 | 0.00 | 0.00 | 32 | 1015.1 |
| 20260505080537 | 13 | 340 | 0.0 | 6.4 | 0.00 | 0.00 | 0.00 | 32 | 1015.3 |
| 20260505075539 | 13 | 304 | 4.8 | 17.7 | 0.00 | 0.00 | 0.00 | 32 | 1015.4 |
| 20260505075038 | 13 | 325 | 8.0 | 19.3 | 0.00 | 0.00 | 0.00 | 32 | 1015.2 |
| 20260505074548 | 13 | 329 | 9.7 | 19.3 | 0.00 | 0.00 | 0.00 | 31 | 1015.2 |
| 20260505074038 | 13 | 286 | 9.7 | 19.3 | 0.00 | 0.00 | 0.00 | 31 | 1015.4 |
| 20260505073538 | 13 | 297 | 9.7 | 29.0 | 0.00 | 0.00 | 0.00 | 32 | 1015.4 |
| 20260505073048 | 13 | 300 | 11.3 | 29.0 | 0.00 | 0.00 | 0.00 | 31 | 1015.3 |
| 20260505072538 | 13 | 280 | 12.9 | 24.1 | 0.00 | 0.00 | 0.00 | 32 | 1015.2 |
| 20260505072038 | 13 | 267 | 16.1 | 22.5 | 0.00 | 0.00 | 0.00 | 32 | 1015.2 |
| 20260505071554 | 14 | 272 | 17.7 | 22.5 | 0.00 | 0.00 | 0.00 | 31 | 1015.2 |
| 20260505071038 | 14 | 281 | 14.5 | 27.4 | 0.00 | 0.00 | 0.00 | 31 | 1015.1 |
| 20260505070538 | 14 | 300 | 19.3 | 32.2 | 0.00 | 0.00 | 0.00 | 31 | 1014.9 |
| 20260505070047 | 14 | 280 | 22.5 | 32.2 | 0.00 | 0.00 | 0.00 | 31 | 1014.8 |
| 20260505065539 | 14 | 288 | 27.4 | 32.2 | 0.00 | 0.00 | 0.00 | 31 | 1014.6 |
| 20260505065038 | 14 | 264 | 20.9 | 33.8 | 0.00 | 0.00 | 0.00 | 31 | 1014.5 |
| 20260505064542 | 14 | 259 | 25.7 | 35.4 | 0.00 | 0.00 | 0.00 | 31 | 1014.4 |
| 20260505064041 | 14 | 258 | 24.1 | 35.4 | 0.00 | 0.00 | 0.00 | 31 | 1014.3 |
| 20260505063538 | 14 | 236 | 24.1 | 32.2 | 0.00 | 0.00 | 0.00 | 31 | 1014.4 |
| 20260505063104 | 14 | 251 | 25.7 | 32.2 | 0.00 | 0.00 | 0.00 | 31 | 1014.4 |
| 20260505062538 | 13 | 261 | 25.7 | 33.8 | 0.00 | 0.00 | 0.00 | 31 | 1014.6 |
| 20260505062039 | 13 | 265 | 25.7 | 33.8 | 0.00 | 0.00 | 0.00 | 31 | 1014.7 |
| 20260505061610 | 13 | 260 | 25.7 | 30.6 | 0.00 | 0.00 | 0.00 | 31 | 1014.7 |
| 20260505061038 | 13 | 252 | 24.1 | 30.6 | 0.00 | 0.00 | 0.00 | 31 | 1014.7 |
| 20260505060539 | 13 | 266 | 24.1 | 30.6 | 0.00 | 0.00 | 0.00 | 31 | 1014.7 |
| 20260505060055 | 13 | 258 | 20.9 | 27.4 | 0.00 | 0.00 | 0.00 | 31 | 1014.8 |
| 20260505055538 | 14 | 250 | 22.5 | 27.4 | 0.00 | 0.00 | 0.00 | 30 | 1014.9 |
| 20260505055041 | 14 | 265 | 22.5 | 29.0 | 0.00 | 0.00 | 0.00 | 30 | 1015.1 |
| 20260505054548 | 13 | 262 | 24.1 | 29.0 | 0.00 | 0.00 | 0.00 | 30 | 1015.0 |
| 20260505054039 | 13 | 252 | 22.5 | 29.0 | 0.00 | 0.00 | 0.00 | 31 | 1014.9 |
| 20260505053539 | 13 | 242 | 16.1 | 20.9 | 0.00 | 0.00 | 0.00 | 31 | 1014.9 |
| 20260505053046 | 13 | 257 | 16.1 | 19.3 | 0.00 | 0.00 | 0.00 | 31 | 1015.1 |
| 20260505052538 | 13 | 260 | 14.5 | 19.3 | 0.00 | 0.00 | 0.00 | 31 | 1015.0 |
| 20260505052040 | 14 | 249 | 12.9 | 17.7 | 0.00 | 0.00 | 0.00 | 31 | 1015.1 |
| 20260505051606 | 14 | 249 | 12.9 | 17.7 | 0.00 | 0.00 | 0.00 | 30 | 1015.1 |
| 20260505051039 | 14 | 254 | 14.5 | 17.7 | 0.00 | 0.00 | 0.00 | 30 | 1015.1 |
| 20260505050538 | 14 | 261 | 12.9 | 16.1 | 0.00 | 0.00 | 0.00 | 30 | 1015.1 |